Flag for U.S.A. Weather past 2 weeks in Tallahassee, Florida, U.S.A.

Now
51 °F

Passing clouds.


Feels Like: 51 °F
Forecast: 45 / 70 °F
Wind: No wind

Location: Tallahassee Regional Airport

Current Time: Jan 31, 2015 at 7:55:52 PM

Latest Report: Jan 31, 2015 at 6:53 PM


Visibility: 10 mi

Pressure: 30.27 "Hg

Humidity: 48%

Dew point: 32 °F

Location of TallahasseeLocation

Historic Weather in Tallahassee — Graph

°F

Tallahassee temperature yesterday

Maximum temperature yesterday: 64 °F (at 2:53 PM)
Minimum temperature yesterday: 41 °F (at 12:53 AM)
Average temperature yesterday: 53 °F

Past Weeks' High & Low Weather Summary

 TemperatureHumidityPressure
High73 °F (Jan 21, 1:53 PM)97% (Jan 23, 9:53 AM)30.37 "Hg (Jan 23, 9:53 AM)
Low29 °F (Jan 19, 7:53 AM)14% (Jan 19, 2:53 PM)29.75 "Hg (Jan 24, 1:53 AM)
Average52 °F64%30.10 "Hg
* Reported Jan 16 6:53 PM — Jan 31 6:53 PM, Tallahassee, Weather by CustomWeather, © 2014

Note: Actual official high and low records may vary slightly from our data, if they occured in-between our weather recording intervals... More about our weather records

Advertising

Tallahassee weather history for previous 24 hours

 ConditionsComfort  
Time TempWeatherWind HumidityBarometerVisibility
6:53 PM
Jan 31
51 °FPassing clouds.No wind48%30.27 "Hg10 mi
5:53 PM60 °FPartly sunny.5 mph31%30.26 "Hg10 mi
4:53 PM65 °FScattered clouds.9 mph24%30.25 "Hg10 mi
3:53 PM65 °FScattered clouds.9 mph24%30.27 "Hg10 mi
2:53 PM65 °FScattered clouds.7 mph23%30.27 "Hg10 mi
1:53 PM63 °FScattered clouds.9 mph23%30.29 "Hg10 mi
12:53 PM60 °FScattered clouds.7 mph30%30.33 "Hg10 mi
11:53 AM57 °FScattered clouds.5 mph33%30.36 "Hg10 mi
10:53 AM53 °FScattered clouds.9 mph38%30.36 "Hg10 mi
9:53 AM49 °FScattered clouds.8 mph41%30.35 "Hg10 mi
8:53 AM44 °FScattered clouds.8 mph47%30.34 "Hg10 mi
7:53 AM31 °FScattered clouds.No wind76%30.34 "Hg10 mi
6:53 AM30 °FPassing clouds.3 mph79%30.32 "Hg10 mi
5:53 AM34 °FPassing clouds.3 mph76%30.30 "Hg10 mi
4:53 AM33 °FClear.No wind78%30.29 "Hg10 mi
3:53 AM31 °FClear.No wind79%30.30 "Hg10 mi
2:53 AM32 °FClear.No wind79%30.30 "Hg10 mi
1:53 AM37 °FClear.3 mph70%30.30 "Hg10 mi
12:53 AM35 °FClear.No wind75%30.30 "Hg10 mi
11:53 PM
Jan 30
41 °FClear.No wind65%30.30 "Hg10 mi
10:53 PM47 °FPassing clouds.5 mph54%30.30 "Hg10 mi
9:53 PM46 °FPassing clouds.3 mph56%30.29 "Hg10 mi
8:53 PM50 °FPassing clouds.5 mph50%30.28 "Hg10 mi
7:53 PM49 °FPassing clouds.3 mph52%30.27 "Hg10 mi
Weather by CustomWeather, © 2014

See weather overviewHow to use our weather pages